TimeMDT,TemperatureF,Dew PointF,Humidity,Sea Level PressureIn,VisibilityMPH,Wind Direction,Wind SpeedMPH,Gust SpeedMPH,PrecipitationIn,Events,Conditions,WindDirDegrees,DateUTC
12:35 AM,55.4,19.4,25,30.10,10.0,WNW,6.9,-,N/A,,Clear,300,2013-05-15 06:35:00
12:55 AM,57.2,17.6,21,30.10,10.0,West,4.6,-,N/A,,Clear,280,2013-05-15 06:55:00
1:15 AM,55.4,17.6,23,30.10,10.0,WNW,6.9,-,N/A,,Clear,290,2013-05-15 07:15:00
1:35 AM,57.2,19.4,23,30.10,10.0,WNW,9.2,-,N/A,,Clear,300,2013-05-15 07:35:00
1:55 AM,55.4,19.4,25,30.09,10.0,WNW,6.9,-,N/A,,Clear,300,2013-05-15 07:55:00
2:15 AM,55.4,21.2,26,30.09,10.0,WNW,6.9,-,N/A,,Clear,300,2013-05-15 08:15:00
2:35 AM,55.4,21.2,26,30.09,10.0,WNW,3.5,-,N/A,,Clear,300,2013-05-15 08:35:00
2:55 AM,55.4,21.2,26,30.10,10.0,Calm,Calm,-,N/A,,Clear,0,2013-05-15 08:55:00
3:15 AM,53.6,21.2,28,30.10,10.0,NW,4.6,-,N/A,,Clear,320,2013-05-15 09:15:00
3:35 AM,53.6,21.2,28,30.10,10.0,West,3.5,-,N/A,,Clear,260,2013-05-15 09:35:00
3:55 AM,55.4,21.2,26,30.09,10.0,Calm,Calm,-,N/A,,Clear,0,2013-05-15 09:55:00
4:15 AM,55.4,21.2,26,30.09,10.0,WNW,3.5,-,N/A,,Clear,290,2013-05-15 10:15:00
4:35 AM,53.6,21.2,28,30.09,10.0,Calm,Calm,-,N/A,,Clear,0,2013-05-15 10:35:00
4:55 AM,53.6,23.0,30,30.09,10.0,West,3.5,-,N/A,,Clear,280,2013-05-15 10:55:00
5:15 AM,55.4,23.0,29,30.10,10.0,West,4.6,-,N/A,,Clear,260,2013-05-15 11:15:00
5:35 AM,51.8,24.8,35,30.10,10.0,WSW,4.6,-,N/A,,Clear,250,2013-05-15 11:35:00
5:55 AM,53.6,23.0,30,30.10,10.0,West,4.6,-,N/A,,Clear,260,2013-05-15 11:55:00
6:15 AM,51.8,24.8,35,30.10,10.0,West,3.5,-,N/A,,Clear,260,2013-05-15 12:15:00
6:35 AM,51.8,26.6,38,30.10,10.0,WNW,5.8,-,N/A,,Mostly Cloudy,290,2013-05-15 12:35:00
6:55 AM,50.0,30.2,47,30.11,10.0,North,9.2,-,N/A,,Scattered Clouds,350,2013-05-15 12:55:00
7:15 AM,53.6,30.2,41,30.12,10.0,North,9.2,-,N/A,,Scattered Clouds,350,2013-05-15 13:15:00
7:35 AM,53.6,32.0,44,30.11,10.0,North,5.8,-,N/A,,Overcast,10,2013-05-15 13:35:00
7:55 AM,53.6,32.0,44,30.11,10.0,North,8.1,-,N/A,,Overcast,350,2013-05-15 13:55:00
8:15 AM,53.6,32.0,44,30.12,10.0,North,3.5,-,N/A,,Overcast,10,2013-05-15 14:15:00
8:35 AM,53.6,30.2,41,30.11,10.0,NNE,4.6,-,N/A,,Overcast,20,2013-05-15 14:35:00
8:55 AM,53.6,30.2,41,30.12,10.0,NNE,4.6,-,N/A,,Overcast,30,2013-05-15 14:55:00
9:15 AM,53.6,30.2,41,30.12,10.0,Calm,Calm,-,N/A,,Overcast,0,2013-05-15 15:15:00
9:35 AM,55.4,32.0,41,30.12,10.0,Calm,Calm,-,N/A,,Overcast,0,2013-05-15 15:35:00
9:55 AM,59.0,30.2,34,30.11,10.0,South,3.5,-,N/A,,Mostly Cloudy,190,2013-05-15 15:55:00
10:15 AM,59.0,30.2,34,30.11,10.0,SSW,3.5,-,N/A,,Scattered Clouds,200,2013-05-15 16:15:00
10:35 AM,60.8,30.2,31,30.10,10.0,SSE,6.9,-,N/A,,Scattered Clouds,150,2013-05-15 16:35:00
10:55 AM,62.6,30.2,30,30.10,10.0,South,10.4,-,N/A,,Clear,170,2013-05-15 16:55:00
11:15 AM,62.6,32.0,32,30.10,10.0,South,13.8,18.4,N/A,,Mostly Cloudy,180,2013-05-15 17:15:00
11:55 AM,62.6,30.2,30,30.09,10.0,SSW,11.5,19.6,N/A,,Mostly Cloudy,210,2013-05-15 17:55:00
12:15 PM,62.6,30.2,30,30.08,10.0,SW,12.7,21.9,N/A,,Overcast,220,2013-05-15 18:15:00
12:35 PM,62.6,30.2,30,30.08,10.0,SW,10.4,16.1,N/A,,Overcast,230,2013-05-15 18:35:00
12:55 PM,62.6,28.4,27,30.07,10.0,WSW,10.4,17.3,N/A,,Overcast,250,2013-05-15 18:55:00
1:15 PM,62.6,30.2,30,30.06,10.0,WSW,12.7,16.1,N/A,,Mostly Cloudy,250,2013-05-15 19:15:00
1:35 PM,62.6,28.4,27,30.05,10.0,West,9.2,-,N/A,,Mostly Cloudy,270,2013-05-15 19:35:00
1:55 PM,62.6,26.6,26,30.04,10.0,West,6.9,17.3,N/A,,Mostly Cloudy,260,2013-05-15 19:55:00
2:15 PM,60.8,28.4,29,30.05,10.0,WSW,8.1,-,N/A,,Overcast,240,2013-05-15 20:15:00
2:35 PM,62.6,28.4,27,30.03,10.0,SW,6.9,-,N/A,,Mostly Cloudy,230,2013-05-15 20:35:00
2:55 PM,64.4,28.4,26,30.03,10.0,SW,10.4,-,N/A,,Scattered Clouds,220,2013-05-15 20:55:00
3:35 PM,66.2,26.6,23,30.01,10.0,West,6.9,-,N/A,,Mostly Cloudy,270,2013-05-15 21:35:00
3:55 PM,64.4,26.6,24,30.01,10.0,West,4.6,-,N/A,,Scattered Clouds,260,2013-05-15 21:55:00
4:15 PM,64.4,28.4,26,30.01,10.0,South,15.0,20.7,N/A,,Scattered Clouds,190,2013-05-15 22:15:00
4:35 PM,68.0,28.4,23,30.00,10.0,South,16.1,21.9,N/A,,Scattered Clouds,170,2013-05-15 22:35:00
4:55 PM,64.4,28.4,26,30.01,10.0,South,11.5,17.3,N/A,,Mostly Cloudy,170,2013-05-15 22:55:00
5:15 PM,60.8,32.0,34,30.01,10.0,ENE,10.4,17.3,N/A,,Overcast,70,2013-05-15 23:15:00
5:35 PM,59.0,32.0,36,30.01,10.0,NE,9.2,-,N/A,Rain-Thunderstorm,Light Thunderstorms and Rain,50,2013-05-15 23:35:00
5:55 PM,51.8,35.6,54,30.04,5.0,Calm,Calm,-,0.08,Rain-Thunderstorm,Thunderstorms and Rain,0,2013-05-15 23:55:00
6:15 PM,46.4,41.0,81,30.06,7.0,WNW,16.1,23.0,0.04,Rain-Thunderstorm,Light Thunderstorms and Rain,290,2013-05-16 00:15:00
6:35 PM,48.2,41.0,76,30.07,7.0,South,4.6,-,0.06,Rain,Heavy Rain,170,2013-05-16 00:35:00
6:55 PM,46.4,41.0,81,30.03,10.0,South,5.8,11.5,0.09,Rain,Rain,190,2013-05-16 00:55:00
7:15 PM,48.2,41.0,76,30.01,10.0,NNW,9.2,-,N/A,Thunderstorm,Overcast,340,2013-05-16 01:15:00
7:35 PM,50.0,41.0,71,30.02,10.0,NW,13.8,20.7,N/A,,Overcast,320,2013-05-16 01:35:00
7:55 PM,50.0,41.0,71,30.02,10.0,NNW,9.2,-,N/A,,Overcast,340,2013-05-16 01:55:00
8:15 PM,48.2,41.0,76,30.03,10.0,NW,5.8,-,N/A,,Scattered Clouds,320,2013-05-16 02:15:00
8:35 PM,50.0,41.0,71,30.02,10.0,Calm,Calm,-,N/A,,Mostly Cloudy,0,2013-05-16 02:35:00
8:55 PM,50.0,41.0,71,30.03,10.0,SSE,8.1,-,N/A,,Overcast,160,2013-05-16 02:55:00
9:15 PM,46.4,42.8,87,30.02,10.0,South,5.8,-,N/A,,Mostly Cloudy,170,2013-05-16 03:15:00
9:35 PM,46.4,42.8,87,30.03,10.0,SSE,3.5,-,N/A,,Mostly Cloudy,150,2013-05-16 03:35:00
9:55 PM,46.4,41.0,81,30.03,10.0,SSE,8.1,-,N/A,,Scattered Clouds,160,2013-05-16 03:55:00
10:15 PM,44.6,41.0,87,30.02,10.0,SE,5.8,-,N/A,,Clear,140,2013-05-16 04:15:00
10:35 PM,44.6,41.0,87,30.03,10.0,Calm,Calm,-,N/A,,Clear,0,2013-05-16 04:35:00
10:55 PM,44.6,41.0,87,30.02,10.0,Calm,Calm,-,N/A,,Clear,0,2013-05-16 04:55:00
11:15 PM,44.6,41.0,87,30.02,10.0,Calm,Calm,-,N/A,,Clear,0,2013-05-16 05:15:00
11:35 PM,46.4,41.0,81,30.01,10.0,Calm,Calm,-,N/A,,Clear,0,2013-05-16 05:35:00
11:55 PM,44.6,41.0,87,30.02,10.0,West,5.8,-,N/A,,Scattered Clouds,260,2013-05-16 05:55:00